| time (UTC) | temp C | wind direction | speed KPH | gust KPH | rain 1hr cm | rain 24hr cm | rain mn cm | humidity % | barometer mb |
| 20260903222904 | 37 | 232 | 3.2 | 11.3 | 0.00 | 0.00 | 0.00 | 40 | 1012.8 |
| 20260903222404 | 37 | 227 | 0.0 | 0.0 | 0.00 | 0.00 | 0.00 | 41 | 1012.8 |
| 20260903221405 | 37 | 194 | 0.0 | 0.0 | 0.00 | 0.00 | 0.00 | 40 | 1012.9 |
| 20260903220904 | 37 | 191 | 0.0 | 0.0 | 0.00 | 0.00 | 0.00 | 41 | 1012.9 |
| 20260903215905 | 36 | 196 | 0.0 | 0.0 | 0.00 | 0.00 | 0.00 | 40 | 1013.0 |
| 20260903214904 | 36 | 194 | 0.0 | 0.0 | 0.00 | 0.00 | 0.00 | 40 | 1013.1 |
| 20260903214405 | 36 | 148 | 0.0 | 0.0 | 0.00 | 0.00 | 0.00 | 40 | 1013.1 |
| 20260903213905 | 36 | 202 | 0.0 | 0.0 | 0.00 | 0.00 | 0.00 | 39 | 1013.1 |
| 20260903212904 | 37 | 213 | 1.6 | 9.7 | 0.00 | 0.00 | 0.00 | 37 | 1013.1 |
| 20260903212405 | 38 | 193 | 3.2 | 9.7 | 0.00 | 0.00 | 0.00 | 37 | 1013.1 |
| 20260903211904 | 37 | 148 | 0.0 | 8.0 | 0.00 | 0.00 | 0.00 | 37 | 1013.1 |
| 20260903211405 | 37 | 152 | 0.0 | 9.7 | 0.00 | 0.00 | 0.00 | 38 | 1013.2 |
| 20260903210404 | 37 | 199 | 0.0 | 0.0 | 0.00 | 0.00 | 0.00 | 37 | 1013.4 |
| 20260903205904 | 37 | 199 | 0.0 | 0.0 | 0.00 | 0.00 | 0.00 | 37 | 1013.3 |
| 20260903205405 | 37 | 154 | 3.2 | 9.7 | 0.00 | 0.00 | 0.00 | 38 | 1013.5 |
| 20260903204904 | 37 | 195 | 4.8 | 14.5 | 0.00 | 0.00 | 0.00 | 37 | 1013.5 |
| 20260903204404 | 37 | 208 | 3.2 | 9.7 | 0.00 | 0.00 | 0.00 | 38 | 1013.5 |
| 20260903203904 | 36 | 195 | 0.0 | 0.0 | 0.00 | 0.00 | 0.00 | 39 | 1013.6 |
| 20260903203404 | 36 | 206 | 0.0 | 0.0 | 0.00 | 0.00 | 0.00 | 38 | 1013.6 |
| 20260903202904 | 36 | 184 | 0.0 | 0.0 | 0.00 | 0.00 | 0.00 | 39 | 1013.6 |
| 20260903202404 | 37 | 247 | 0.0 | 0.0 | 0.00 | 0.00 | 0.00 | 37 | 1013.7 |
| 20260903201904 | 37 | 212 | 0.0 | 0.0 | 0.00 | 0.00 | 0.00 | 37 | 1013.7 |
| 20260903201404 | 37 | 163 | 1.6 | 9.7 | 0.00 | 0.00 | 0.00 | 37 | 1013.7 |
| 20260903200904 | 38 | 212 | 0.0 | 3.2 | 0.00 | 0.00 | 0.00 | 37 | 1013.7 |
| 20260903200405 | 38 | 207 | 4.8 | 16.1 | 0.00 | 0.00 | 0.00 | 38 | 1013.7 |
| 20260903195404 | 37 | 208 | 0.0 | 8.0 | 0.00 | 0.00 | 0.00 | 40 | 1013.9 |
| 20260903194905 | 37 | 197 | 3.2 | 12.9 | 0.00 | 0.00 | 0.00 | 39 | 1013.9 |
| 20260903194405 | 37 | 191 | 1.6 | 9.7 | 0.00 | 0.00 | 0.00 | 39 | 1013.9 |
| 20260903193905 | 37 | 186 | 0.0 | 0.0 | 0.00 | 0.00 | 0.00 | 40 | 1013.9 |
| 20260903192404 | 37 | 226 | 0.0 | 3.2 | 0.00 | 0.00 | 0.00 | 39 | 1014.1 |
| 20260903191904 | 37 | 222 | 3.2 | 12.9 | 0.00 | 0.00 | 0.00 | 39 | 1014.1 |
| 20260903191404 | 37 | 174 | 0.0 | 0.0 | 0.00 | 0.00 | 0.00 | 39 | 1014.1 |
| 20260903190904 | 37 | 236 | 0.0 | 0.0 | 0.00 | 0.00 | 0.00 | 40 | 1014.1 |
| 20260903190404 | 37 | 248 | 0.0 | 0.0 | 0.00 | 0.00 | 0.00 | 41 | 1014.2 |
| 20260903185905 | 36 | 180 | 0.0 | 0.0 | 0.00 | 0.00 | 0.00 | 45 | 1014.2 |
| 20260903185404 | 36 | 180 | 0.0 | 4.8 | 0.00 | 0.00 | 0.00 | 44 | 1014.3 |
| 20260903184904 | 36 | 272 | 3.2 | 9.7 | 0.00 | 0.00 | 0.00 | 43 | 1014.4 |
| 20260903184404 | 36 | 57 | 0.0 | 0.0 | 0.00 | 0.00 | 0.00 | 42 | 1014.4 |
| 20260903183904 | 36 | 241 | 0.0 | 0.0 | 0.00 | 0.00 | 0.00 | 44 | 1014.5 |
| 20260903183404 | 36 | 241 | 0.0 | 0.0 | 0.00 | 0.00 | 0.00 | 42 | 1014.4 |
| 20260903182405 | 37 | 225 | 1.6 | 37.0 | 0.00 | 0.00 | 0.00 | 41 | 1014.6 |
| 20260903180904 | 36 | 228 | 3.2 | 12.9 | 0.00 | 0.00 | 0.00 | 42 | 1014.6 |
| 20260903175904 | 36 | 242 | 1.6 | 11.3 | 0.00 | 0.00 | 0.00 | 42 | 1014.7 |
| 20260903174904 | 36 | 215 | 0.0 | 4.8 | 0.00 | 0.00 | 0.00 | 46 | 1014.9 |
| 20260903174404 | 35 | 211 | 1.6 | 8.0 | 0.00 | 0.00 | 0.00 | 46 | 1015.0 |
| 20260903173904 | 35 | 244 | 0.0 | 0.0 | 0.00 | 0.00 | 0.00 | 47 | 1015.1 |
| 20260903173404 | 35 | 224 | 0.0 | 0.0 | 0.00 | 0.00 | 0.00 | 44 | 1015.1 |
| 20260903172405 | 36 | 264 | 0.0 | 0.0 | 0.00 | 0.00 | 0.00 | 44 | 1015.2 |
| 20260903171404 | 36 | 241 | 0.0 | 9.7 | 0.00 | 0.00 | 0.00 | 42 | 1015.3 |
| 20260903170904 | 36 | 267 | 0.0 | 8.0 | 0.00 | 0.00 | 0.00 | 42 | 1015.3 |
| 20260903170405 | 36 | 227 | 4.8 | 12.9 | 0.00 | 0.00 | 0.00 | 44 | 1015.4 |
| 20260903165904 | 36 | 138 | 3.2 | 12.9 | 0.00 | 0.00 | 0.00 | 44 | 1015.4 |
| 20260903165404 | 36 | 177 | 1.6 | 12.9 | 0.00 | 0.00 | 0.00 | 46 | 1015.5 |
| 20260903164904 | 36 | 244 | 0.0 | 8.0 | 0.00 | 0.00 | 0.00 | 47 | 1015.5 |
| 20260903164404 | 36 | 252 | 0.0 | 0.0 | 0.00 | 0.00 | 0.00 | 46 | 1015.6 |
| 20260903162904 | 35 | 267 | 4.8 | 12.9 | 0.00 | 0.00 | 0.00 | 50 | 1015.8 |
| 20260903162404 | 35 | 247 | 0.0 | 0.0 | 0.00 | 0.00 | 0.00 | 50 | 1015.8 |
| 20260903161404 | 35 | 228 | 3.2 | 11.3 | 0.00 | 0.00 | 0.00 | 49 | 1015.9 |
| 20260903160904 | 35 | 276 | 0.0 | 0.0 | 0.00 | 0.00 | 0.00 | 50 | 1016.0 |
| 20260903155904 | 34 | 255 | 0.0 | 0.0 | 0.00 | 0.00 | 0.00 | 52 | 1016.0 |
| 20260903155404 | 34 | 234 | 3.2 | 11.3 | 0.00 | 0.00 | 0.00 | 53 | 1016.0 |
| 20260903154904 | 34 | 255 | 0.0 | 11.3 | 0.00 | 0.00 | 0.00 | 54 | 1016.0 |
| 20260903153404 | 33 | 258 | 1.6 | 11.3 | 0.00 | 0.00 | 0.00 | 55 | 1016.0 |
| 20260903152904 | 33 | 266 | 4.8 | 12.9 | 0.00 | 0.00 | 0.00 | 53 | 1016.1 |
| 20260903152405 | 33 | 250 | 4.8 | 12.9 | 0.00 | 0.00 | 0.00 | 55 | 1016.1 |
| 20260903150904 | 32 | 209 | 0.0 | 0.0 | 0.00 | 0.00 | 0.00 | 58 | 1016.0 |
| 20260903150404 | 32 | 200 | 0.0 | 0.0 | 0.00 | 0.00 | 0.00 | 61 | 1016.1 |
| 20260903145904 | 32 | 202 | 0.0 | 0.0 | 0.00 | 0.00 | 0.00 | 61 | 1016.1 |
| 20260903145404 | 31 | 215 | 0.0 | 0.0 | 0.00 | 0.00 | 0.00 | 63 | 1016.1 |
| 20260903144904 | 31 | 215 | 0.0 | 0.0 | 0.00 | 0.00 | 0.00 | 65 | 1016.1 |
| 20260903143904 | 30 | 231 | 0.0 | 0.0 | 0.00 | 0.00 | 0.00 | 66 | 1016.1 |
| 20260903143404 | 30 | 212 | 0.0 | 0.0 | 0.00 | 0.00 | 0.00 | 67 | 1016.1 |
| 20260903142904 | 29 | 156 | 0.0 | 0.0 | 0.00 | 0.00 | 0.00 | 69 | 1016.1 |
| 20260903141903 | 28 | 215 | 0.0 | 0.0 | 0.00 | 0.00 | 0.00 | 70 | 1016.2 |
| 20260903141404 | 28 | 199 | 0.0 | 0.0 | 0.00 | 0.00 | 0.00 | 71 | 1016.2 |
| 20260903140904 | 28 | 233 | 0.0 | 1.6 | 0.00 | 0.00 | 0.00 | 72 | 1016.2 |
| 20260903140404 | 27 | 210 | 0.0 | 0.0 | 0.00 | 0.00 | 0.00 | 73 | 1016.2 |
| 20260903135904 | 27 | 163 | 0.0 | 0.0 | 0.00 | 0.00 | 0.00 | 75 | 1016.2 |
| 20260903135404 | 27 | 163 | 0.0 | 0.0 | 0.00 | 0.00 | 0.00 | 75 | 1016.2 |
| 20260903134904 | 26 | 163 | 0.0 | 0.0 | 0.00 | 0.00 | 0.00 | 76 | 1016.2 |
| 20260903134404 | 26 | 163 | 0.0 | 0.0 | 0.00 | 0.00 | 0.00 | 77 | 1016.3 |
| 20260903133904 | 26 | 163 | 0.0 | 0.0 | 0.00 | 0.00 | 0.00 | 78 | 1016.4 |
| 20260903133403 | 26 | 163 | 0.0 | 0.0 | 0.00 | 0.00 | 0.00 | 79 | 1016.4 |
| 20260903132404 | 25 | 163 | 0.0 | 0.0 | 0.00 | 0.00 | 0.00 | 80 | 1016.4 |
| 20260903131904 | 25 | 167 | 0.0 | 0.0 | 0.00 | 0.00 | 0.00 | 81 | 1016.5 |
| 20260903131404 | 25 | 168 | 0.0 | 0.0 | 0.00 | 0.00 | 0.00 | 82 | 1016.5 |
| 20260903130904 | 25 | 181 | 0.0 | 0.0 | 0.00 | 0.00 | 0.00 | 82 | 1016.5 |
| 20260903130404 | 24 | 182 | 0.0 | 0.0 | 0.00 | 0.00 | 0.00 | 82 | 1016.4 |
| 20260903125904 | 24 | 183 | 0.0 | 0.0 | 0.00 | 0.00 | 0.00 | 82 | 1016.4 |
| 20260903124904 | 23 | 217 | 0.0 | 0.0 | 0.00 | 0.00 | 0.00 | 82 | 1016.5 |
| 20260903124404 | 23 | 217 | 0.0 | 0.0 | 0.00 | 0.00 | 0.00 | 82 | 1016.5 |
| 20260903123904 | 23 | 217 | 0.0 | 0.0 | 0.00 | 0.00 | 0.00 | 82 | 1016.5 |
| 20260903123404 | 23 | 217 | 0.0 | 0.0 | 0.00 | 0.00 | 0.00 | 82 | 1016.5 |
| 20260903122904 | 22 | 225 | 0.0 | 0.0 | 0.00 | 0.00 | 0.00 | 82 | 1016.4 |
| 20260903122403 | 22 | 225 | 0.0 | 0.0 | 0.00 | 0.00 | 0.00 | 82 | 1016.4 |
| 20260903121904 | 22 | 225 | 0.0 | 0.0 | 0.00 | 0.00 | 0.00 | 82 | 1016.4 |
| 20260903120903 | 22 | 225 | 0.0 | 0.0 | 0.00 | 0.00 | 0.00 | 82 | 1016.3 |
| 20260903115903 | 22 | 225 | 0.0 | 0.0 | 0.00 | 0.00 | 0.00 | 82 | 1016.2 |
| 20260903115403 | 22 | 225 | 0.0 | 0.0 | 0.00 | 0.00 | 0.00 | 82 | 1016.2 |
| 20260903114904 | 22 | 225 | 0.0 | 0.0 | 0.00 | 0.00 | 0.00 | 82 | 1016.2 |
| 20260903114404 | 22 | 225 | 0.0 | 0.0 | 0.00 | 0.00 | 0.00 | 82 | 1016.1 |
| 20260903113903 | 21 | 225 | 0.0 | 0.0 | 0.00 | 0.00 | 0.00 | 82 | 1016.1 |
| 20260903112904 | 21 | 225 | 0.0 | 0.0 | 0.00 | 0.00 | 0.00 | 82 | 1016.1 |
| 20260903112404 | 22 | 225 | 0.0 | 0.0 | 0.00 | 0.00 | 0.00 | 82 | 1016.1 |
| 20260903111903 | 22 | 225 | 0.0 | 0.0 | 0.00 | 0.00 | 0.00 | 82 | 1016.1 |
| 20260903111403 | 21 | 225 | 0.0 | 0.0 | 0.00 | 0.00 | 0.00 | 82 | 1016.0 |
| 20260903110903 | 21 | 225 | 0.0 | 0.0 | 0.00 | 0.00 | 0.00 | 82 | 1016.0 |
| 20260903103904 | 22 | 225 | 0.0 | 0.0 | 0.00 | 0.00 | 0.00 | 82 | 1015.9 |
| 20260903103404 | 22 | 225 | 0.0 | 0.0 | 0.00 | 0.00 | 0.00 | 82 | 1015.9 |
| 20260903102904 | 22 | 225 | 0.0 | 0.0 | 0.00 | 0.00 | 0.00 | 82 | 1015.9 |
| 20260903102403 | 22 | 225 | 0.0 | 0.0 | 0.00 | 0.00 | 0.00 | 82 | 1015.9 |
| 20260903101904 | 22 | 225 | 0.0 | 0.0 | 0.00 | 0.00 | 0.00 | 82 | 1015.8 |
| 20260903101404 | 22 | 225 | 0.0 | 0.0 | 0.00 | 0.00 | 0.00 | 82 | 1015.8 |
| 20260903100903 | 22 | 225 | 0.0 | 0.0 | 0.00 | 0.00 | 0.00 | 82 | 1015.7 |
| 20260903100404 | 22 | 225 | 0.0 | 0.0 | 0.00 | 0.00 | 0.00 | 82 | 1015.7 |
| 20260903095403 | 22 | 225 | 0.0 | 0.0 | 0.00 | 0.00 | 0.00 | 82 | 1015.7 |
| 20260903094904 | 22 | 225 | 0.0 | 0.0 | 0.00 | 0.00 | 0.00 | 82 | 1015.6 |
| 20260903094403 | 22 | 225 | 0.0 | 0.0 | 0.00 | 0.00 | 0.00 | 82 | 1015.6 |
| 20260903093904 | 22 | 225 | 0.0 | 0.0 | 0.00 | 0.00 | 0.00 | 82 | 1015.6 |
| 20260903093404 | 22 | 225 | 0.0 | 0.0 | 0.00 | 0.00 | 0.00 | 82 | 1015.5 |
| 20260903092905 | 22 | 225 | 0.0 | 0.0 | 0.00 | 0.00 | 0.00 | 82 | 1015.6 |
| 20260903092404 | 22 | 225 | 0.0 | 0.0 | 0.00 | 0.00 | 0.00 | 82 | 1015.5 |
| 20260903091904 | 22 | 225 | 0.0 | 0.0 | 0.00 | 0.00 | 0.00 | 82 | 1015.6 |
| 20260903091403 | 22 | 225 | 0.0 | 0.0 | 0.00 | 0.00 | 0.00 | 82 | 1015.5 |
| 20260903090905 | 22 | 225 | 0.0 | 0.0 | 0.00 | 0.00 | 0.00 | 82 | 1015.4 |
| 20260903090405 | 22 | 225 | 0.0 | 0.0 | 0.00 | 0.00 | 0.00 | 81 | 1015.4 |
| 20260903085905 | 22 | 225 | 0.0 | 0.0 | 0.00 | 0.00 | 0.00 | 81 | 1015.4 |
| 20260903085405 | 22 | 225 | 0.0 | 0.0 | 0.00 | 0.00 | 0.00 | 82 | 1015.4 |
| 20260903084905 | 22 | 225 | 0.0 | 0.0 | 0.00 | 0.00 | 0.00 | 82 | 1015.3 |
| 20260903084406 | 22 | 225 | 0.0 | 0.0 | 0.00 | 0.00 | 0.00 | 82 | 1015.3 |
| 20260903083905 | 22 | 225 | 0.0 | 0.0 | 0.00 | 0.00 | 0.00 | 81 | 1015.3 |
| 20260903083405 | 22 | 225 | 0.0 | 0.0 | 0.00 | 0.00 | 0.00 | 81 | 1015.3 |
| 20260903082905 | 22 | 225 | 0.0 | 0.0 | 0.00 | 0.00 | 0.00 | 81 | 1015.2 |
| 20260903082405 | 22 | 225 | 0.0 | 0.0 | 0.00 | 0.00 | 0.00 | 81 | 1015.2 |
| 20260903081906 | 22 | 225 | 0.0 | 0.0 | 0.00 | 0.00 | 0.00 | 81 | 1015.2 |
| 20260903080905 | 22 | 225 | 0.0 | 0.0 | 0.00 | 0.00 | 0.00 | 81 | 1015.3 |
| 20260903080405 | 22 | 225 | 0.0 | 0.0 | 0.00 | 0.00 | 0.00 | 81 | 1015.3 |
| 20260903075905 | 22 | 225 | 0.0 | 0.0 | 0.00 | 0.00 | 0.00 | 81 | 1015.3 |
| 20260903075405 | 22 | 225 | 0.0 | 0.0 | 0.00 | 0.00 | 0.00 | 81 | 1015.3 |
| 20260903073906 | 23 | 225 | 0.0 | 0.0 | 0.00 | 0.00 | 0.00 | 81 | 1015.1 |
| 20260903073405 | 23 | 225 | 0.0 | 0.0 | 0.00 | 0.00 | 0.00 | 81 | 1015.1 |
| 20260903072905 | 23 | 225 | 0.0 | 0.0 | 0.00 | 0.00 | 0.00 | 81 | 1015.1 |
| 20260903071405 | 23 | 225 | 0.0 | 0.0 | 0.00 | 0.00 | 0.00 | 81 | 1015.0 |
| 20260903070405 | 23 | 225 | 0.0 | 0.0 | 0.00 | 0.00 | 0.00 | 80 | 1015.0 |
| 20260903065405 | 23 | 225 | 0.0 | 0.0 | 0.00 | 0.00 | 0.00 | 80 | 1015.0 |
| 20260903064905 | 23 | 225 | 0.0 | 0.0 | 0.00 | 0.00 | 0.00 | 80 | 1015.0 |
| 20260903064405 | 23 | 225 | 0.0 | 0.0 | 0.00 | 0.00 | 0.00 | 80 | 1015.0 |
| 20260903063905 | 23 | 225 | 0.0 | 0.0 | 0.00 | 0.00 | 0.00 | 80 | 1015.1 |
| 20260903063405 | 23 | 225 | 0.0 | 0.0 | 0.00 | 0.00 | 0.00 | 80 | 1015.1 |
| 20260903062905 | 23 | 225 | 0.0 | 0.0 | 0.00 | 0.00 | 0.00 | 80 | 1015.1 |
| 20260903062405 | 23 | 225 | 0.0 | 0.0 | 0.00 | 0.00 | 0.00 | 80 | 1015.2 |
| 20260903061905 | 23 | 225 | 0.0 | 0.0 | 0.00 | 0.00 | 0.00 | 80 | 1015.2 |
| 20260903061405 | 23 | 225 | 0.0 | 0.0 | 0.00 | 0.00 | 0.00 | 79 | 1015.2 |
| 20260903060905 | 23 | 225 | 0.0 | 0.0 | 0.00 | 0.00 | 0.00 | 79 | 1015.2 |
| 20260903060405 | 23 | 225 | 0.0 | 0.0 | 0.00 | 0.00 | 0.00 | 79 | 1015.1 |
| 20260903055905 | 23 | 225 | 0.0 | 0.0 | 0.00 | 0.00 | 0.00 | 79 | 1015.1 |
| 20260903055405 | 23 | 225 | 0.0 | 0.0 | 0.00 | 0.00 | 0.00 | 79 | 1015.2 |
| 20260903054905 | 24 | 225 | 0.0 | 0.0 | 0.00 | 0.00 | 0.00 | 78 | 1015.1 |
| 20260903054405 | 24 | 225 | 0.0 | 0.0 | 0.00 | 0.00 | 0.00 | 78 | 1015.1 |
| 20260903053905 | 24 | 225 | 0.0 | 0.0 | 0.00 | 0.00 | 0.00 | 77 | 1015.2 |
| 20260903053404 | 25 | 225 | 0.0 | 0.0 | 0.00 | 0.00 | 0.00 | 77 | 1015.2 |
| 20260903052405 | 25 | 225 | 0.0 | 0.0 | 0.00 | 0.00 | 0.00 | 77 | 1015.1 |
| 20260903051405 | 25 | 225 | 0.0 | 0.0 | 0.00 | 0.00 | 0.00 | 77 | 1015.1 |
| 20260903050405 | 25 | 225 | 0.0 | 0.0 | 0.00 | 0.00 | 0.00 | 77 | 1015.1 |
| 20260903045905 | 25 | 225 | 0.0 | 0.0 | 0.00 | 0.00 | 0.00 | 77 | 1015.1 |
| 20260903044905 | 25 | 225 | 0.0 | 0.0 | 0.00 | 0.00 | 0.00 | 76 | 1015.1 |
| 20260903044405 | 26 | 225 | 0.0 | 0.0 | 0.00 | 0.00 | 0.00 | 76 | 1015.1 |
| 20260903043904 | 26 | 225 | 0.0 | 0.0 | 0.00 | 0.00 | 0.00 | 75 | 1015.1 |
| 20260903043405 | 26 | 225 | 0.0 | 0.0 | 0.00 | 0.00 | 0.00 | 75 | 1015.0 |
| 20260903042905 | 26 | 225 | 0.0 | 0.0 | 0.00 | 0.00 | 0.00 | 75 | 1014.9 |
| 20260903042405 | 26 | 225 | 0.0 | 0.0 | 0.00 | 0.00 | 0.00 | 74 | 1015.0 |
| 20260903041405 | 26 | 225 | 0.0 | 0.0 | 0.00 | 0.00 | 0.00 | 74 | 1015.0 |
| 20260903040904 | 26 | 225 | 0.0 | 0.0 | 0.00 | 0.00 | 0.00 | 74 | 1015.1 |
| 20260903040405 | 26 | 225 | 0.0 | 0.0 | 0.00 | 0.00 | 0.00 | 73 | 1015.1 |
| 20260903035905 | 26 | 225 | 0.0 | 0.0 | 0.00 | 0.00 | 0.00 | 73 | 1015.0 |
| 20260903035404 | 26 | 225 | 0.0 | 0.0 | 0.00 | 0.00 | 0.00 | 73 | 1015.0 |
| 20260903034405 | 26 | 225 | 0.0 | 0.0 | 0.00 | 0.00 | 0.00 | 72 | 1015.0 |
| 20260903033905 | 26 | 225 | 0.0 | 0.0 | 0.00 | 0.00 | 0.00 | 72 | 1015.0 |
| 20260903033405 | 26 | 225 | 0.0 | 0.0 | 0.00 | 0.00 | 0.00 | 72 | 1014.9 |
| 20260903032904 | 26 | 225 | 0.0 | 0.0 | 0.00 | 0.00 | 0.00 | 72 | 1015.0 |
| 20260903032405 | 26 | 225 | 0.0 | 0.0 | 0.00 | 0.00 | 0.00 | 72 | 1015.0 |
| 20260903031905 | 26 | 225 | 0.0 | 0.0 | 0.00 | 0.00 | 0.00 | 72 | 1014.9 |
| 20260903031405 | 26 | 225 | 0.0 | 0.0 | 0.00 | 0.00 | 0.00 | 72 | 1015.0 |
| 20260903030905 | 26 | 225 | 0.0 | 0.0 | 0.00 | 0.00 | 0.00 | 71 | 1015.1 |
| 20260903030405 | 27 | 225 | 0.0 | 0.0 | 0.00 | 0.00 | 0.00 | 71 | 1015.1 |
| 20260903024405 | 27 | 225 | 0.0 | 0.0 | 0.00 | 0.00 | 0.00 | 69 | 1014.9 |
| 20260903023905 | 27 | 225 | 0.0 | 0.0 | 0.00 | 0.00 | 0.00 | 68 | 1014.9 |
| 20260903023405 | 27 | 225 | 0.0 | 0.0 | 0.00 | 0.00 | 0.00 | 67 | 1015.0 |
| 20260903022905 | 28 | 225 | 0.0 | 0.0 | 0.00 | 0.00 | 0.00 | 66 | 1015.0 |
| 20260903022404 | 28 | 225 | 0.0 | 0.0 | 0.00 | 0.00 | 0.00 | 66 | 1014.9 |
| 20260903021905 | 28 | 225 | 0.0 | 0.0 | 0.00 | 0.00 | 0.00 | 66 | 1015.0 |
| 20260903021405 | 28 | 225 | 0.0 | 0.0 | 0.00 | 0.00 | 0.00 | 66 | 1014.9 |
| 20260903020404 | 28 | 225 | 0.0 | 0.0 | 0.00 | 0.00 | 0.00 | 65 | 1014.9 |
| 20260903015905 | 28 | 225 | 0.0 | 0.0 | 0.00 | 0.00 | 0.00 | 65 | 1014.9 |
| 20260903015405 | 28 | 225 | 0.0 | 0.0 | 0.00 | 0.00 | 0.00 | 64 | 1014.9 |
| 20260903014405 | 29 | 225 | 0.0 | 0.0 | 0.00 | 0.00 | 0.00 | 63 | 1014.8 |
| 20260903013904 | 29 | 225 | 0.0 | 0.0 | 0.00 | 0.00 | 0.00 | 63 | 1014.7 |
| 20260903013405 | 29 | 225 | 0.0 | 0.0 | 0.00 | 0.00 | 0.00 | 62 | 1014.7 |
| 20260903012904 | 30 | 225 | 0.0 | 0.0 | 0.00 | 0.00 | 0.00 | 61 | 1014.6 |
| 20260903012404 | 30 | 225 | 0.0 | 0.0 | 0.00 | 0.00 | 0.00 | 60 | 1014.6 |
| 20260903011905 | 30 | 225 | 0.0 | 0.0 | 0.00 | 0.00 | 0.00 | 60 | 1014.6 |
| 20260903011404 | 30 | 225 | 0.0 | 0.0 | 0.00 | 0.00 | 0.00 | 59 | 1014.6 |
| 20260903010905 | 30 | 225 | 0.0 | 0.0 | 0.00 | 0.00 | 0.00 | 58 | 1014.7 |
| 20260903005404 | 31 | 225 | 0.0 | 0.0 | 0.00 | 0.00 | 0.00 | 55 | 1014.5 |
| 20260903004905 | 31 | 225 | 0.0 | 0.0 | 0.00 | 0.00 | 0.00 | 55 | 1014.5 |
| 20260903004405 | 31 | 225 | 0.0 | 0.0 | 0.00 | 0.00 | 0.00 | 54 | 1014.5 |
| 20260903003404 | 32 | 225 | 0.0 | 0.0 | 0.00 | 0.00 | 0.00 | 53 | 1014.6 |
| 20260903002904 | 32 | 225 | 0.0 | 0.0 | 0.00 | 0.00 | 0.00 | 53 | 1014.6 |
| 20260903002405 | 32 | 225 | 0.0 | 0.0 | 0.00 | 0.00 | 0.00 | 52 | 1014.6 |
| 20260903001904 | 32 | 225 | 0.0 | 0.0 | 0.00 | 0.00 | 0.00 | 52 | 1014.5 |
| 20260903001405 | 32 | 225 | 0.0 | 0.0 | 0.00 | 0.00 | 0.00 | 51 | 1014.5 |
| 20260903000905 | 33 | 177 | 0.0 | 0.0 | 0.00 | 0.00 | 0.00 | 50 | 1014.6 |
| 20260903000405 | 33 | 227 | 0.0 | 0.0 | 0.00 | 0.00 | 0.00 | 49 | 1014.6 |
| 20260902235905 | 33 | 227 | 0.0 | 3.2 | 0.00 | 0.00 | 0.00 | 49 | 1014.6 |
| 20260902235405 | 33 | 227 | 0.0 | 0.0 | 0.00 | 0.00 | 0.00 | 48 | 1014.6 |
| 20260902234904 | 34 | 227 | 0.0 | 0.0 | 0.00 | 0.00 | 0.00 | 47 | 1014.7 |
| 20260902234404 | 34 | 182 | 0.0 | 0.0 | 0.00 | 0.00 | 0.00 | 46 | 1014.7 |
| 20260902233905 | 35 | 216 | 0.0 | 8.0 | 0.00 | 0.00 | 0.00 | 46 | 1014.5 |
| 20260902233405 | 35 | 207 | 0.0 | 0.0 | 0.00 | 0.00 | 0.00 | 46 | 1014.5 |
| 20260902232404 | 35 | 182 | 0.0 | 4.8 | 0.00 | 0.00 | 0.00 | 45 | 1014.4 |
| 20260902231904 | 35 | 220 | 1.6 | 11.3 | 0.00 | 0.00 | 0.00 | 45 | 1014.5 |
| 20260902231405 | 35 | 200 | 0.0 | 11.3 | 0.00 | 0.00 | 0.00 | 45 | 1014.5 |
| 20260902230905 | 35 | 220 | 0.0 | 8.0 | 0.00 | 0.00 | 0.00 | 45 | 1014.6 |
| 20260902225904 | 35 | 176 | 0.0 | 11.3 | 0.00 | 0.00 | 0.00 | 44 | 1014.6 |
| 20260902225404 | 35 | 190 | 1.6 | 9.7 | 0.00 | 0.00 | 0.00 | 44 | 1014.5 |
| 20260902224405 | 35 | 232 | 4.8 | 16.1 | 0.00 | 0.00 | 0.00 | 43 | 1014.5 |
| 20260902223404 | 36 | 235 | 0.0 | 0.0 | 0.00 | 0.00 | 0.00 | 41 | 1014.6 |